Regional Weather Roundup
Issued by NWS

Home | Current Version | Previous Version | Text Only | Print | Product List | Glossary Off
Versions: 1 2 3 4 5 6 7 8 9 10 11 12 13 14 15 16 17 18 19 20 21 22 23 24 25 26 27 28 29 30 31 32 33 34 35 36 37 38 39 40 41 42 43 44 45 46 47 48 49 50

000
ASUS43 KLMK 261510
RWRKY
KENTUCKY REGIONAL WEATHER ROUNDUP
NATIONAL WEATHER SERVICE LOUISVILLE KY
1100 AM EDT MON JUN 26 2017

NOTE "FAIR" INDICATES FEW OR NO CLOUDS BELOW 12,000 FEET
WITH NO SIGNIFICANT WEATHER AND/OR OBSTRUCTIONS TO VISIBILITY.

KYZ001>023-026-027-061>063-070>075-261600-
WESTERN AND SOUTH CENTRAL KENTUCKY

CITY           SKY/WX    TMP DP  RH WIND       PRES   REMARKS
PADUCAH        MOSUNNY   76  47  35 VRB3      30.22S
HENDERSON      SUNNY     72  51  47 NW7       30.22F
OWENSBORO      SUNNY     73  46  38 N7        30.21F
HOPKINSVILLE   SUNNY     74  50  42 N8        30.22S
BOWLING GREEN  MOSUNNY   74  52  46 VRB3      30.21F
GLASGOW        SUNNY     73  48  41 NW6       30.21S
$$

KYZ024-025-028>034-038-045-046-053-261600-
NORTH CENTRAL KENTUCKY

CITY           SKY/WX    TMP DP  RH WIND       PRES   REMARKS
LOUISVILLE/SDF MOSUNNY   73  47  39 NW12G17   30.20S
LOUISVILLE/LOU MOSUNNY   73  47  39 NW12      30.20S
FORT KNOX      SUNNY     71  50  47 W8        30.19S
$$

KYZ035>037-039>044-047>052-055>060-089>105-261600-
NORTHEAST KENTUCKY

CITY           SKY/WX    TMP DP  RH WIND       PRES   REMARKS
LEXINGTON      SUNNY     71  45  39 NW10G17   30.20S
COVINGTON      MOSUNNY   68  53  58 NW7       30.18S
FRANKFORT      MOSUNNY   71  48  43 W8        30.19S
$$

KYZ054-064>069-076>088-106>120-261600-
SOUTHEAST KENTUCKY

CITY           SKY/WX    TMP DP  RH WIND       PRES   REMARKS
JACKSON        MOSUNNY   70  55  59 VRB5      30.19S
LONDON         MOSUNNY   71  52  50 NW6       30.20S
SOMERSET       SUNNY     70  52  52 CALM      30.22R
MIDDLESBORO    SUNNY     70  57  62 CALM      30.20F
MONTICELLO     MOSUNNY   73  55  53 NW7       30.22S
$$





USA.gov is the U.S. government's official web portal to all federal, state and local government web resources and services.